Weather Roundup
Issued by NWS Chicago, IL

Home | Current Version | Previous Version | Text Only | Print | Product List | Glossary Off
Versions: 1 2 3 4 5 6 7 8 9 10 11 12 13 14 15 16 17 18 19 20 21 22 23 24 25 26 27 28 29 30 31 32 33 34 35 36 37 38 39 40 41 42 43 44 45 46 47 48 49 50

000
NZUS59 KLOT 161210
HRRLOT

CHICAGO AREA WEATHER ROUNDUP
NATIONAL WEATHER SERVICE CHICAGO/ROMEOVILLE IL
700 AM CDT TUE SEP 16 2014

NOTE: "FAIR" INDICATES FEW OR NO CLOUDS BELOW 12,000 FEET WITH NO
SIGNIFICANT WEATHER AND/OR OBSTRUCTIONS TO VISIBILITY.

* THESE STATIONS ARE NOT UNDER NWS QUALITY CONTROL. THEY ALSO MAY NOT
  REPORT WEATHER SUCH AS PRECIPITATION OR FOG.

ILZ005-006-012>014-019>023-161300-
NORTHEAST ILLINOIS

CITY           SKY/WX    TMP DP  RH WIND       PRES   REMARKS
OHARE          PTCLDY    45  42  89 NW6       30.20R
6HR MIN TEMP:  44; 6HR MAX TEMP:  51;

MIDWAY         PTCLDY    47  45  93 CALM      30.20R
6HR MIN TEMP:  47; 6HR MAX TEMP:  54;

AURORA         CLEAR     41  38  89 W6        30.22R
6HR MIN TEMP:  39; 6HR MAX TEMP:  45;

LANSING*       CLEAR     47  46  97 W3        30.20S
JOLIET*        CLEAR     43  42  96 CALM      30.22S FOG
WAUKEGAN       CLEAR     44  41  89 NW6       30.20R
6HR MIN TEMP:  44; 6HR MAX TEMP:  47;

DUPAGE AIRPORT CLEAR     42  40  92 CALM      30.21R
6HR MIN TEMP:  41; 6HR MAX TEMP:  47;

WHEELING       CLEAR     45  42  89 NW3       30.22R
6HR MIN TEMP:  43; 6HR MAX TEMP:  50;

KANKAKEE*      CLEAR     45  45  99 W3        30.22R FOG
MORRIS*          N/A     41  41 100 CALM      30.22R FOG
LEWIS AIRPORT* CLEAR     42  42 100 W5        30.22R FOG
NORTHERLY IS     N/A     51  46  83 W2          N/A
$$

WIZ051-052-058>065-066-070>072-161300-
SOUTHEAST WISCONSIN

CITY           SKY/WX    TMP DP  RH WIND       PRES   REMARKS
MILWAUKEE      CLEAR     45  41  86 CALM      30.21R
6HR MIN TEMP:  44; 6HR MAX TEMP:  50;

KENOSHA*       CLEAR     41  40  96 W5        30.21R
RACINE*        CLEAR     45  41  86 NW7       30.22R
BURLINGTON     CLEAR     36  36 100 CALM      30.21S FOG
WAUKESHA       CLEAR     37  37 100 CALM      30.21R
WEST BEND      CLEAR     39  37  93 CALM      30.20S
$$

INZ001>003-010>013-019-020-161300-
NORTHWEST INDIANA

CITY           SKY/WX    TMP DP  RH WIND       PRES   REMARKS
GARY*          PTCLDY    50  46  87 W5        30.20R
MICHIGAN CITY* NOT AVBL
RENSSELAER*    NOT AVBL
VALPARAISO     CLOUDY    52  51  97 CALM      30.20R
$$

LMZ740>746-161300-
SOUTHERN LAKE MICHIGAN

STATION/POSITION TIME  SKY/WX   TEMP WIND        PRES    VSBY
                                AIR  DIR/SP/G
                 (UTC)          (F)  (DEG/KT/KT) (MB)    (MI)
HARRISON CRIB    1200            51  310/  9/ 11   N/A
BURNHAM HARBOR   1200            52  260/  2/  6   N/A
CALUMET HARBOR   1200            48  280/  4/  5 1021.3R
BURNS HARBOR     NOT AVBL
MICHIGAN CITY    1200            53  100/  4/  5   N/A
$$

ABBREVIATIONS USED IN REMARKS
   TC - TEMPERATURE IN CELSIUS
  WCI - WIND CHILL INDEX
   HX - HEAT INDEX
  VSB - VISIBILITY
$$


USA.gov is the U.S. government's official web portal to all federal, state and local government web resources and services.